• Join FlightAware (Why Join?)
  • Login
  • US Flag GB Flag 
06:12 EDT


 

Airport Tracker/Info


-or-


 

Live Flight TrackerFlight Track Log ✈ SWA407 ✈ 04-Apr-2013 ✈ KTPA - KBUF

Flight Track Log - Related Links

Times and Time Zones

All times are in EDT time to prevent confusion due to time zone crossing. See the SWA407 flight status page for this flight to view local times or setup timezone preferences in your user account.

Time Position Orientation Groundspeed Altitude Reporting Facility
EDT Latitude Longitude Course Direction KTS MPH feet Rate Location/Type
15:41 27.9667 -82.5500 158° South 171 197 1,100  Level Tampa TRACON
15:43 27.8803 -82.5100 158° South 190 219 4,600 2,280 Climbing Jacksonville Center
15:44 27.9489 -82.4744 25° Northeast 125 144 7,900 2,880 Climbing Jacksonville Center
15:45 28.0283 -82.4975 346° North 182 209 10,400 2,280 Climbing Jacksonville Center
15:46 28.1244 -82.5208 348° North 300 345 12,500 2,220 Climbing Jacksonville Center
15:47 28.2308 -82.5369 352° North 333 383 14,900 2,700 Climbing Jacksonville Center
15:48 28.3372 -82.5506 354° North 372 428 17,900 2,520 Climbing Jacksonville Center
15:49 28.4458 -82.5644 354° North 378 435 20,000 2,100 Climbing Jacksonville Center
15:50 28.5628 -82.5831 352° North 396 456 22,100 1,860 Climbing Jacksonville Center
15:51 28.6839 -82.5944 355° North 417 480 23,800 1,560 Climbing Jacksonville Center
15:52 28.7925 -82.6106 353° North 428 493 25,300 1,500 Climbing Jacksonville Center
15:53 28.9175 -82.6244 354° North 444 511 26,800 1,440 Climbing Jacksonville Center
15:54 29.0514 -82.6431 353° North 456 525 28,200 1,320 Climbing Jacksonville Center
15:55 29.1850 -82.6619 353° North 475 547 29,500 1,200 Climbing Jacksonville Center
15:56 29.3228 -82.6806 353° North 487 560 30,600 1,020 Climbing Jacksonville Center
15:57 29.4647 -82.6922 356° North 500 575 31,600 1,200 Climbing Jacksonville Center
15:58 29.6297 -82.6942 359° North 523 602 33,100 1,260 Climbing Jacksonville Center
15:59 29.7717 -82.6939 360° North 511 588 34,200 1,140 Climbing Jacksonville Center
16:00 29.9197 -82.6914 North 521 600 35,400 960 Climbing Jacksonville Center
16:01 30.0514 -82.6886 North 521 600 36,200 780 Climbing Jacksonville Center
16:02 30.2142 -82.6883 360° North 521 600 37,000 360 Climbing Jacksonville Center
16:03 30.3625 -82.6856 North 528 608 37,000  Level Jacksonville Center
16:04 30.5086 -82.6853 360° North 528 608 37,000  Level Jacksonville Center
16:05 30.6400 -82.6656 North 528 608 37,000  Level Jacksonville Center
16:06 30.7883 -82.6411 North 539 620 37,000  Level Jacksonville Center
16:07 30.9386 -82.6142 North 539 620 37,000  Level Jacksonville Center
16:08 31.0867 -82.5894 North 539 620 37,000  Level Jacksonville Center
16:09 31.2350 -82.5767 North 539 620 37,000  Level Jacksonville Center
16:10 31.3936 -82.6078 350° North 523 602 37,000  Level Jacksonville Center
16:11 31.5439 -82.5953 North 523 602 37,000  Level Jacksonville Center
16:13 31.8442 -82.5622 North 543 625 37,000  Level Atlanta Center
16:14 31.9983 -82.5425 North 543 625 37,000  Level Atlanta Center
16:15 32.1483 -82.5253 North 543 625 37,000  Level Atlanta Center
16:16 32.2964 -82.5106 North 537 618 37,000  Level Atlanta Center
16:17 32.4486 -82.4931 North 537 618 37,000  Level Atlanta Center
16:18 32.5967 -82.4733 North 537 618 37,000  Level Atlanta Center
16:19 32.7489 -82.4606 North 537 618 37,000  Level Atlanta Center
16:20 32.9008 -82.4331 North 542 624 37,000  Level Atlanta Center
16:21 33.0483 -82.3808 17° North 542 624 37,000  Level Atlanta Center
16:22 33.1850 -82.2939 28° Northeast 543 625 37,000  Level Atlanta Center
16:23 33.3467 -82.2161 22° Northeast 563 648 37,000  Level Atlanta Center
16:24 33.5003 -82.1756 12° North 558 642 37,000  Level Atlanta Center
16:25 33.6542 -82.1297 14° North 558 642 37,000  Level Atlanta Center
16:26 33.8058 -82.0864 13° North 558 642 37,000  Level Atlanta Center
16:27 33.9597 -82.0428 13° North 563 648 37,000  Level Atlanta Center
16:28 34.1133 -81.9964 14° North 563 648 37,000  Level Atlanta Center
16:29 34.2628 -81.9550 13° North 563 648 37,000  Level Atlanta Center
16:30 34.4000 -81.9167 13° North 558 642 37,000  Level Atlanta Center
16:31 34.5472 -81.8725 14° North 558 642 37,000  Level Atlanta Center
16:32 34.7136 -81.8278 12° North 553 636 37,000  Level Atlanta Center
16:33 34.8589 -81.7858 13° North 548 631 37,000  Level Atlanta Center
16:34 35.0081 -81.7386 15° North 543 625 37,000  Level Atlanta Center
16:35 35.1411 -81.7019 13° North 548 631 37,000  Level Atlanta Center
16:36 35.2842 -81.6572 14° North 538 619 37,000  Level Atlanta Center
16:37 35.4314 -81.6147 13° North 538 619 37,000  Level Atlanta Center
16:38 35.5786 -81.5722 13° North 538 619 37,000  Level Atlanta Center
16:39 35.7364 -81.5239 14° North 538 619 37,000  Level Atlanta Center
16:40 35.8814 -81.4783 14° North 538 619 37,000  Level Atlanta Center
16:41 36.0222 -81.4328 15° North 525 604 37,000  Level Atlanta Center
16:42 36.1631 -81.3897 14° North 525 604 37,000  Level Atlanta Center
16:43 36.3061 -81.3464 14° North 525 604 37,000  Level Atlanta Center
16:45 36.5622 -81.2667 14° North 524 603 37,000  Level Indianapolis Center
16:46 36.6997 -81.2231 14° North 520 598 37,000  Level Indianapolis Center
16:47 36.8439 -81.1819 13° North 535 616 37,000  Level Indianapolis Center
16:48 36.9842 -81.1550 North 523 602 37,000  Level Indianapolis Center
16:49 37.1500 -81.1339 North 511 588 37,000  Level Indianapolis Center
16:50 37.2894 -81.1358 359° North 507 583 37,000  Level Indianapolis Center
16:51 37.4231 -81.1525 354° North 493 567 37,000  Level Indianapolis Center
16:52 37.5828 -81.1725 354° North 491 565 37,000  Level Indianapolis Center
16:53 37.7153 -81.1894 354° North 487 560 37,000  Level Indianapolis Center
16:54 37.8378 -81.2042 355° North 493 567 37,000  Level Indianapolis Center
16:55 38.0083 -81.1533 13° North 525 604 37,000  Level Indianapolis Center
16:56 38.1492 -81.0969 17° North 531 611 37,000  Level Indianapolis Center
16:57 38.2903 -81.0403 17° North 533 613 37,000  Level Indianapolis Center
16:58 38.4322 -80.9847 17° North 536 617 37,000  Level Indianapolis Center
16:59 38.5739 -80.9272 18° North 537 618 37,000  Level Indianapolis Center
17:00 38.7447 -80.8594 17° North 538 619 37,000  Level Indianapolis Center
17:01 38.8842 -80.8019 18° North 531 611 37,000  Level Indianapolis Center
17:03 39.0225 -80.7469 17° North 524 603 37,000  Level Indianapolis Center
17:04 39.1592 -80.6914 17° North 516 594 37,000  Level Indianapolis Center
17:05 39.2956 -80.6356 18° North 515 593 37,000  Level Indianapolis Center
17:06 39.4481 -80.5778 16° North 516 594 37,000  Level Cleveland Center
17:07 39.5836 -80.5211 18° North 516 594 37,000  Level Cleveland Center
17:08 39.7189 -80.4644 18° North 516 594 37,000  Level Cleveland Center
17:09 39.8564 -80.4261 12° North 510 587 37,000  Level Cleveland Center
17:10 39.9961 -80.4258 360° North 504 580 37,000  Level Cleveland Center
17:11 40.1358 -80.4200 North 498 573 37,000 -840 Level Cleveland Center
17:12 40.2714 -80.4225 359° North 493 567 35,400 -2,280 Descending Cleveland Center
17:13 40.4236 -80.3922 North 498 573 32,500 -2,040 Descending Cleveland Center
17:14 40.5525 -80.3181 24° Northeast 498 573 31,400 -780 Descending Cleveland Center
17:15 40.6836 -80.2519 21° North 503 579 31,000 -600 Descending Cleveland Center
17:16 40.8128 -80.1825 22° Northeast 503 579 30,300 -3,540 Descending Cleveland Center
17:17 40.9439 -80.1131 22° Northeast 503 579 24,000 -1,020 Descending Cleveland Center
17:18 41.0644 -80.0461 23° Northeast 488 562 28,300 1,620 Climbing Cleveland Center
17:19 41.1831 -79.9872 20° North 473 544 27,300 -1,020 Descending Cleveland Center
17:20 41.2994 -79.9281 21° North 452 520 26,300 -1,020 Descending Cleveland Center
17:21 41.4117 -79.8661 22° Northeast 435 501 25,300 -1,020 Descending Cleveland Center
17:22 41.5197 -79.8067 22° Northeast 429 494 24,300 -660 Descending Cleveland Center
17:23 41.6256 -79.7497 22° Northeast 418 481 24,000 -600 Descending Cleveland Center
17:24 41.7314 -79.6928 22° Northeast 412 474 23,200 -900 Descending Cleveland Center
17:25 41.8394 -79.6356 22° Northeast 412 474 22,200 -1,140 Descending Cleveland Center
17:27 42.0406 -79.5236 22° Northeast 400 460 19,800 -1,440 Descending Cleveland Center
17:28 42.1381 -79.4686 23° Northeast 388 447 18,000 -1,860 Descending Cleveland Center
17:29 42.2356 -79.4164 22° Northeast 377 434 16,100 -1,920 Descending Cleveland Center
17:30 42.3308 -79.3614 23° Northeast 372 428 14,200 -1,980 Descending Cleveland Center
17:31 42.4200 -79.3147 21° North 365 420 12,200 -1,620 Descending Cleveland Center
17:32 42.5153 -79.2622 22° Northeast 360 414 11,000 -1,080 Descending Cleveland Center
17:33 42.5939 -79.2181 22° Northeast 336 387 10,100 -1,320 Descending Cleveland Center
17:34 42.6747 -79.1769 21° North 308 354 8,400 -1,380 Descending Cleveland Center
17:35 42.7489 -79.1214 29° Northeast 302 348 7,400 -1,020 Descending Cleveland Center
17:36 42.8083 -79.0408 45° Northeast 294 338 6,400 -960 Descending Cleveland Center
17:37 42.8658 -78.9742 40° Northeast 299 344 5,500 -480 Descending Cleveland Center
17:39 43.0000 -78.8167 41° Northeast 266 306 5,000 -240 Descending Buffalo TRACON
17:40 43.0500 -78.7500 44° Northeast 248 285 4,900 -600 Descending Buffalo TRACON
17:41 43.0833 -78.6667 61° Northeast 247 284 3,900 -1,140 Descending Buffalo TRACON
17:42 43.0500 -78.6167 132° Southeast 189 217 2,700 -840 Descending Buffalo TRACON
17:43 43.0167 -78.6333 200° South 160 184 2,300 -540 Descending Buffalo TRACON
17:44 42.9833 -78.6833 228° Southwest 139 160 1,700 -600 Descending Buffalo TRACON